SCP
0 0 0 0 0 0 0 0 0 0 0 0 0 0 0 0 0 0 0 0 0 0 0 0 0 0 0 0 0 1 1 1 1 1 1 0 0 0 0 0 0 0 0
0 0 0 0 0 0 0 0 0 0 0 0 0 0 0 0 0 0 0 0 0 0 0 0 0 0 0 0 0 0 1 1 1 1 1 0 0 0 0 0 0 0 0
0 0 0 0 0 0 0 0 0 0 0 0 0 0 0 0 0 0 0 0 0 0 0 0 0 0 0 0 0 0 0 1 1 1 1 1 0 0 0 0 0 0 0
0 0 0 0 0 0 0 0 0 0 0 0 0 0 0 0 0 0 0 0 0 0 0 0 0 0 0 0 0 0 0 0 0 1 1 0 0 0 0 0 0 0 0
0 0 0 0 0 0 0 0 0 0 0 0 0 0 0 0 0 0 0 0 0 0 0 0 0 0 0 0 0 0 0 0 0 0 0 0 0 1 1 1 1 0 0
0 0 0 0 0 0 0 0 0 0 0 0 0 0 0 0 0 0 0 0 0 0 0 0 0 0 0 0 0 0 0 0 0 0 0 0 0 1 1 1 1 1 0
0 0 0 0 0 0 0 0 0 0 0 0 0 0 0 0 0 0 0 0 0 0 0 0 0 0 0 0 0 0 0 0 0 0 0 0 0 1 1 1 1 1 1
0 0 0 0 0 0 0 0 0 0 0 0 0 0 0 0 0 0 0 0 0 0 0 0 0 0 0 0 0 0 0 0 0 0 0 0 0 1 1 1 1 1 1
0 0 0 0 0 0 0 0 0 0 0 0 0 0 0 0 0 0 0 0 0 0 0 0 0 0 0 0 0 0 0 0 0 0 0 0 0 0 1 1 1 1 1
0 0 0 0 0 0 0 0 0 0 0 0 0 0 0 0 0 0 0 0 0 0 0 0 0 0 0 0 0 0 0 0 0 0 0 0 0 0 0 1 1 1 1
0 0 0 0 0 0 0 0 0 0 0 0 0 0 0 0 0 0 0 0 0 0 0 0 0 0 0 0 0 0 0 0 0 0 0 0 0 0 0 0 1 1 1
0 0 0 0 0 0 0 0 0 0 0 0 0 0 0 0 0 0 0 0 0 0 0 0 0 0 0 0 0 0 0 0 0 0 0 0 0 0 0 0 0 1 1
0 0 0 0 0 0 0 0 0 0 0 0 0 0 0 0 0 0 0 0 0 0 0 0 0 0 0 0 0 0 0 0 0 0 0 0 0 0 0 0 0 0 1
0 0 0 0 0 0 0 0 0 0 0 0 0 0 0 0 0 0 0 0 0 0 0 0 0 0 0 0 0 0 0 0 0 0 0 0 0 0 0 0 0 0 0
0 0 0 0 0 0 0 0 0 0 0 0 0 0 0 0 0 0 0 0 0 0 0 0 0 0 0 0 0 0 0 0 0 0 0 0 0 0 0 0 0 0 0
0 0 0 0 0 0 0 0 0 0 0 0 0 0 0 0 0 0 0 0 0 0 0 0 0 0 0 0 0 0 0 0 0 0 0 0 0 0 0 0 0 0 0
0 0 0 0 0 0 0 0 0 0 0 0 0 0 0 0 0 0 0 0 0 0 0 0 0 0 0 0 -0 -0 -0 -0 -0 0 0 0 0 0 0 0 0 0 0
0 0 0 0 0 0 0 0 0 0 0 0 0 0 0 0 0 0 0 0 0 0 0 0 0 0 0 0 0 0 0 -0 -0 0 0 0 0 0 0 0 0 0 0
0 0 0 0 0 0 0 0 0 0 0 0 0 0 0 0 0 0 0 0 0 0 0 0 0 0 0 0 0 0 0 0 -0 0 0 0 0 0 0 0 0 0 0
0 0 0 0 0 0 0 0 0 0 0 0 0 0 0 0 0 0 0 0 0 0 0 0 0 0 0 0 0 0 -0 0 0 0 0 0 0 0 0 0 0 0 0
0 0 0 0 0 0 0 0 0 0 0 0 0 0 0 0 0 0 0 0 0 0 0 0 0 0 0 0 0 -0 -0 -0 0 0 0 0 0 0 0 0 0 0 0
0 0 0 0 0 0 0 0 0 0 0 0 0 0 0 0 0 0 0 0 0 0 0 0 0 0 0 0 0 0 -0 -0 -0 0 0 0 0 0 0 0 0 0 0
0 0 0 0 0 0 0 0 0 0 0 0 0 0 0 0 0 0 0 0 0 0 0 0 0 0 0 0 0 0 0 -0 -0 -0 0 0 0 0 0 0 0 0 0
0 0 0 0 0 0 0 0 0 0 0 0 0 0 0 0 0 0 0 0 0 0 0 0 0 0 0 0 0 0 0 0 0 0 0 0 0 0 0 0 0 0 0
0 0 0 0 0 0 0 0 0 0 0 0 0 0 0 0 0 0 0 0 0 0 0 0 0 0 0 0 0 0 0 0 0 0 0 0 0 0 0 0 0 0 0
0 0 0 0 0 0 0 0 0 0 0 0 0 0 0 0 0 0 0 0 0 0 0 0 0 0 0 0 0 0 0 0 0 0 0 0 0 0 0 0 0 0 0
Wind_Speed
10 14 24 25 25 26 26 27 27 27 27 27 28 28 28 28 28 28 28 28 28 28 28 27 26 26 26 25 23 21 18 17 15 13 11 10 9 8 7 6 5 3 6
10 14 23 25 25 26 26 26 27 27 27 27 27 27 27 28 28 28 28 28 28 28 28 27 27 26 26 26 25 23 21 19 17 15 12 10 10 10 9 7 7 5 8
12 13 16 24 25 25 26 26 26 26 26 27 27 27 27 27 28 28 28 28 28 28 27 27 27 27 27 26 25 25 24 22 19 17 14 6 6 11 12 10 9 9 10
11 12 15 24 25 25 25 26 26 26 26 26 26 27 27 27 27 27 28 28 28 28 27 27 27 27 27 27 26 25 25 24 22 19 8 5 5 11 13 12 12 12 11
9 12 17 25 25 25 25 26 26 26 26 26 26 26 26 27 27 27 28 28 28 28 27 27 27 27 27 27 27 26 25 24 24 17 9 7 5 12 15 14 13 13 12
8 10 16 25 24 24 24 25 25 26 26 25 25 25 26 26 27 26 27 28 27 28 27 27 27 27 27 27 27 26 26 26 21 12 10 8 6 13 17 16 15 14 15
8 10 15 24 24 24 24 25 25 25 25 25 25 26 26 26 26 26 26 27 27 27 27 27 27 27 27 26 26 26 26 27 16 12 11 9 9 16 18 18 18 17 17
7 9 13 22 24 23 23 24 25 24 25 25 25 26 26 27 27 26 27 27 27 27 26 26 27 27 27 26 26 26 26 25 16 14 13 10 14 17 18 19 19 19 19
7 9 10 11 14 20 22 24 24 24 24 24 25 26 26 27 27 27 27 27 27 27 26 26 27 27 27 26 26 26 26 25 14 11 14 10 17 20 20 19 19 20 20
6 8 9 9 10 11 11 21 24 23 24 23 24 24 25 24 24 25 25 26 27 26 26 26 27 27 27 26 26 26 25 19 12 14 9 11 21 23 22 20 19 19 21
8 7 9 9 10 10 9 15 16 18 19 19 17 22 19 11 11 14 21 25 26 26 26 26 27 26 25 23 25 26 20 9 13 10 9 18 24 25 24 22 20 19 20
10 8 7 7 8 7 8 6 5 7 8 8 8 10 8 8 9 14 20 23 24 25 25 25 26 23 18 11 16 20 9 13 10 9 11 24 25 25 25 24 22 20 20
5 7 6 6 6 6 6 5 4 4 5 6 8 9 8 7 7 8 7 10 12 16 11 16 15 11 11 11 11 11 11 10 8 9 12 24 25 25 26 25 24 22 20
5 6 5 5 5 5 5 5 4 5 5 5 7 8 7 6 7 8 7 8 7 7 10 9 9 12 13 13 13 13 12 10 9 9 12 24 26 27 26 25 24 23 22
5 6 5 4 6 6 5 5 6 5 5 6 6 7 8 6 7 8 7 7 8 8 9 10 10 13 13 13 12 13 14 13 13 12 10 23 27 26 26 25 24 23 22
4 6 6 4 6 6 5 5 4 5 5 5 5 7 9 7 7 8 8 7 7 8 9 9 11 11 11 11 13 14 14 13 12 12 12 16 24 25 25 24 24 23 22
3 5 7 5 6 6 6 6 6 5 6 5 6 7 8 8 7 8 7 7 7 8 9 9 10 9 11 11 13 14 13 12 13 14 14 12 12 19 23 23 23 22 22
3 5 6 7 6 6 6 6 5 5 6 5 5 6 7 8 8 7 7 6 7 8 8 9 8 10 11 11 12 12 12 12 14 15 13 12 10 10 14 20 21 21 21
3 5 6 6 6 6 6 6 6 5 5 5 5 5 7 8 9 7 7 6 8 7 7 9 9 10 11 12 12 12 11 12 14 13 12 12 10 9 8 14 20 19 18
3 4 5 5 5 6 5 4 4 5 5 5 5 6 9 8 10 8 7 7 8 7 6 8 10 10 10 11 13 13 12 13 12 9 10 9 8 8 8 10 10 12 16
3 4 5 5 6 5 4 5 6 6 6 5 5 7 9 9 10 9 8 8 8 8 9 9 10 11 9 10 11 12 11 11 10 5 6 6 6 7 9 11 9 8 8
4 5 5 6 6 6 4 4 4 6 5 5 6 7 8 10 11 11 10 9 9 8 9 9 10 9 9 8 9 11 8 6 3 9 6 6 6 7 10 12 12 10 9
3 4 6 6 7 6 6 5 6 4 4 4 6 5 6 10 11 11 10 10 10 8 8 9 9 10 10 9 6 7 7 7 11 6 5 5 6 7 8 10 12 12 12
2 4 5 6 6 6 6 6 7 8 8 8 6 7 9 9 11 11 11 11 10 9 10 10 9 8 9 10 8 6 8 10 9 8 4 4 7 8 9 10 12 12 11
3 4 5 5 5 6 6 7 7 6 6 7 8 9 8 8 9 11 12 10 10 10 11 11 11 9 7 8 9 9 10 9 9 8 11 8 7 5 7 10 10 9 10
3 4 5 5 6 6 7 7 7 9 9 11 11 9 9 7 7 9 13 10 10 10 11 12 10 10 9 9 9 8 9 8 7 8 10 12 10 8 8 8 9 8 7
Wind_Direction
339 341 353 8 12 15 16 16 17 17 17 16 16 15 15 14 13 12 11 9 7 5 4 2 1 359 358 356 352 344 334 325 316 310 305 300 295 283 259 234 237 248 215
340 345 356 10 13 15 16 17 17 16 16 15 14 14 14 13 11 10 9 7 5 3 2 0 359 358 357 355 353 348 341 330 319 309 300 293 288 285 272 243 231 234 224
354 349 351 12 14 16 17 17 16 16 15 14 14 13 12 11 9 9 7 5 3 1 0 358 357 357 355 353 351 348 344 339 328 315 304 288 273 276 272 257 237 236 228
356 355 356 15 15 16 17 17 16 15 15 14 13 13 12 10 8 8 5 3 1 359 358 357 356 355 353 351 349 347 345 343 338 326 311 287 268 274 270 260 245 238 229
2 2 358 17 16 16 17 17 15 15 14 13 13 12 11 9 7 6 4 1 359 357 356 356 354 352 350 349 346 345 344 343 340 333 318 297 275 276 273 266 252 242 233
12 6 3 18 16 16 16 17 15 14 13 13 12 12 11 8 5 5 3 359 357 356 354 353 352 350 348 346 345 343 343 342 338 330 321 307 287 280 275 267 257 246 236
21 17 11 17 16 15 15 16 14 14 12 12 11 10 10 7 4 3 1 357 356 354 352 351 349 348 346 345 343 342 342 340 337 332 326 314 300 292 280 269 260 250 239
28 24 20 16 16 14 13 16 13 13 12 12 11 10 9 5 2 1 360 356 355 353 351 350 348 345 344 343 342 342 340 339 338 335 325 314 306 301 289 275 265 255 244
34 30 21 13 12 11 11 14 12 13 12 12 10 8 7 4 360 359 357 353 354 352 350 349 346 344 343 342 341 340 339 338 345 332 322 319 317 313 300 287 274 261 250
41 35 21 11 11 5 360 12 11 12 11 11 8 6 6 1 356 356 352 350 352 350 350 347 345 343 342 340 338 337 338 341 337 324 319 315 322 320 311 300 284 270 256
33 33 22 12 8 1 0 13 8 9 7 9 4 3 2 351 345 352 345 348 350 348 349 344 343 343 342 338 335 334 338 332 326 319 316 315 320 319 315 310 299 281 264
19 16 21 7 1 359 4 2 357 360 354 353 353 354 351 346 343 352 343 346 348 346 346 342 342 342 339 331 329 333 327 325 321 317 312 314 315 315 315 311 304 292 275
7 359 4 360 354 0 359 354 1 350 346 347 348 350 346 340 339 342 335 340 340 342 340 337 337 334 329 326 321 319 318 321 316 311 307 309 311 313 311 308 303 295 285
3 348 345 355 355 360 358 346 1 349 344 347 343 346 347 342 340 339 335 333 336 337 332 332 327 325 324 320 316 314 316 314 309 306 301 306 309 308 306 303 299 294 286
357 340 337 358 2 357 358 350 1 342 342 337 338 345 347 342 338 336 331 330 331 332 330 327 326 322 322 319 316 314 313 309 303 300 302 303 304 304 303 300 297 292 285
347 340 334 4 4 355 355 345 343 338 336 335 337 339 342 338 333 333 328 325 328 329 325 323 318 318 318 316 312 312 307 302 298 298 297 299 301 301 301 299 295 290 286
346 338 335 2 7 354 351 346 347 333 334 333 332 330 331 332 329 329 324 321 325 324 321 322 315 319 317 315 312 308 304 300 299 297 296 292 293 298 299 300 298 291 285
352 335 332 350 352 348 349 341 332 328 325 321 320 320 321 326 326 324 319 315 319 321 321 320 321 324 318 314 311 307 303 301 298 294 291 289 289 290 299 307 306 296 286
343 321 322 327 341 346 344 337 325 321 317 313 313 313 321 325 325 321 312 311 319 317 318 320 326 319 316 314 310 305 303 299 292 291 289 288 285 291 300 315 317 311 297
328 311 309 320 338 342 339 331 323 318 311 308 310 314 323 323 323 320 310 315 317 315 316 316 317 316 311 311 310 305 299 289 283 281 284 290 294 306 322 320 317 318 315
311 315 315 335 343 350 346 342 331 326 316 309 310 320 319 319 320 315 314 315 315 313 314 314 318 315 315 315 312 312 294 276 273 290 296 296 303 328 331 327 323 320 318
302 316 330 346 341 344 337 321 305 306 301 302 309 307 311 320 321 322 319 316 312 311 310 312 316 311 315 323 314 313 310 303 338 326 302 304 322 336 330 327 318 320 317
306 329 341 336 336 336 332 323 322 304 299 315 320 308 316 319 318 315 313 312 309 307 307 307 304 311 313 310 302 300 305 316 323 281 289 304 327 323 320 316 313 315 307
327 339 338 334 334 333 334 334 335 341 332 326 320 316 319 317 316 317 316 312 308 308 304 302 312 302 301 306 304 280 286 295 296 305 300 305 309 314 311 313 310 303 302
1 344 338 337 333 332 334 331 327 319 308 314 317 316 315 315 314 317 317 311 308 307 301 298 298 292 292 291 293 293 292 288 273 285 301 310 309 299 300 302 298 297 298
356 343 342 343 336 333 332 328 323 316 316 324 328 326 326 321 314 309 313 306 303 301 298 297 292 288 287 285 284 283 285 287 293 293 296 307 309 307 302 295 294 294 297